Weather History for Grand Marais Airport, MN

Change the Weather History Date:

Thursday, October 23, 2014

  Actual Average Record
Temperature  
Mean Temperature 44 °F -  
Max Temperature 46 °F 42 °F 69 °F (1998)
Min Temperature 41 °F 30 °F 19 °F (1997)
Degree Days  
Heating Degree Days 22    
Moisture  
Dew Point 40 °F    
Average Humidity 85    
Maximum Humidity 93    
Minimum Humidity 66    
Precipitation  
Precipitation 0.04 in - - ()
Sea Level Pressure  
Sea Level Pressure 29.97 in    
Wind  
Wind Speed 5 mph (South)    
Max Wind Speed 9 mph    
Max Gust Speed 16 mph    
Visibility 4 miles    
Events Fog , Rain    
Averages and records for this station are not official NWS values.
T = Trace of Precipitation, MM = Missing Value Source: NWS Daily Summary

Daily Weather History Graph

Daily Weather History Graph

Search for Another Location

Airport:

Trip Planner

Search our weather history database for the weather conditions in past years. The results will help you decide how hot, cold, wet, or windy it might be!

Date:

Astronomy

Oct. 23, 2014 Rise Set
Actual Time 7:32 AM CDT 5:58 PM CDT
Civil Twilight 7:00 AM CDT 6:30 PM CDT
Nautical Twilight 6:24 AM CDT 7:06 PM CDT
Astronomical Twilight 5:48 AM CDT 7:41 PM CDT
Moon 7:10 AM CDT (10/23) 6:00 PM CDT (10/23)
Length of Visible Light 11h 29m
Length of Day
10h 25m
Waning Crescent, 0% of the Moon is Illuminated
Oct 23
Waning Crescent
Oct 23
New
Oct 30
First Quarter
Nov 6
Full
Nov 14
Last Quarter

Hourly Weather History & Observations

Time (CDT) Temp. Windchill Dew Point Humidity Pressure Visibility Wind Dir Wind Speed Gust Speed Precip Events Conditions
12:13 AM 44.6 °F 41.4 °F 33.8 °F 66% 30.05 in 10.0 mi SSE 5.8 mph - N/A   Mostly Cloudy
12:34 AM 42.8 °F 39.3 °F 33.8 °F 70% 30.04 in 10.0 mi South 5.8 mph - N/A Rain Light Rain
12:53 AM 42.8 °F 40.1 °F 33.8 °F 70% 30.04 in 10.0 mi South 4.6 mph - N/A   Scattered Clouds
1:13 AM 42.8 °F 40.1 °F 33.8 °F 70% 30.04 in 10.0 mi SSE 4.6 mph - N/A   Mostly Cloudy
1:33 AM 42.8 °F 41.1 °F 33.8 °F 70% 30.04 in 10.0 mi SE 3.5 mph - N/A   Mostly Cloudy
1:54 AM 42.8 °F 40.1 °F 35.6 °F 76% 30.04 in 10.0 mi SE 4.6 mph - N/A   Scattered Clouds
2:14 AM 42.8 °F 40.1 °F 33.8 °F 70% 30.04 in 10.0 mi SE 4.6 mph - N/A   Scattered Clouds
2:33 AM 42.8 °F 40.1 °F 33.8 °F 70% 30.03 in 10.0 mi SE 4.6 mph - N/A   Clear
2:54 AM 42.8 °F 39.3 °F 33.8 °F 70% 30.03 in 10.0 mi SE 5.8 mph - N/A   Mostly Cloudy
3:14 AM 42.8 °F 40.1 °F 35.6 °F 76% 30.02 in 10.0 mi ESE 4.6 mph - N/A   Mostly Cloudy
3:33 AM 42.8 °F 40.1 °F 35.6 °F 76% 30.02 in 10.0 mi ESE 4.6 mph - N/A   Mostly Cloudy
3:54 AM 42.8 °F 40.1 °F 35.6 °F 76% 30.01 in 10.0 mi ESE 4.6 mph - N/A   Mostly Cloudy
4:14 AM 42.8 °F 40.1 °F 35.6 °F 76% 30.02 in 10.0 mi ESE 4.6 mph - N/A Rain Light Rain
4:33 AM 41.0 °F 38.0 °F 35.6 °F 81% 30.01 in 10.0 mi SE 4.6 mph - N/A   Mostly Cloudy
4:53 AM 42.8 °F 39.3 °F 35.6 °F 76% 30.01 in 10.0 mi SE 5.8 mph - N/A   Mostly Cloudy
5:14 AM 42.8 °F 41.1 °F 37.4 °F 81% 30.00 in 10.0 mi SE 3.5 mph - N/A   Overcast
5:34 AM 42.8 °F 40.1 °F 37.4 °F 81% 30.00 in 10.0 mi SE 4.6 mph - N/A   Light Drizzle
5:53 AM 42.8 °F 39.3 °F 37.4 °F 81% 29.99 in 10.0 mi SE 5.8 mph - N/A   Overcast
6:13 AM 42.8 °F 39.3 °F 37.4 °F 81% 29.99 in 10.0 mi SE 5.8 mph - N/A   Overcast
6:34 AM 42.8 °F 40.1 °F 37.4 °F 81% 29.99 in 10.0 mi SE 4.6 mph - N/A   Overcast
6:53 AM 42.8 °F 40.1 °F 37.4 °F 81% 29.98 in 10.0 mi SE 4.6 mph - N/A   Overcast
7:13 AM 42.8 °F 39.3 °F 37.4 °F 81% 29.99 in 10.0 mi SSE 5.8 mph - N/A   Overcast
7:34 AM 42.8 °F 40.1 °F 37.4 °F 81% 29.99 in 10.0 mi SE 4.6 mph - N/A   Overcast
7:53 AM 42.8 °F 39.3 °F 37.4 °F 81% 29.98 in 10.0 mi SE 5.8 mph - N/A   Overcast
8:13 AM 42.8 °F 41.1 °F 39.2 °F 87% 29.99 in 10.0 mi SE 3.5 mph - N/A   Overcast
8:33 AM 42.8 °F 40.1 °F 39.2 °F 87% 29.98 in 5.0 mi SE 4.6 mph - N/A Rain Rain
8:54 AM 42.8 °F 39.3 °F 39.2 °F 87% 29.99 in 5.0 mi SSE 5.8 mph - N/A   Light Drizzle
9:13 AM 42.8 °F 40.1 °F 39.2 °F 87% 29.98 in 4.0 mi SSE 4.6 mph - N/A Rain Light Rain
9:33 AM 42.8 °F 40.1 °F 39.2 °F 87% 29.98 in 2.5 mi South 4.6 mph - 0.03 in Rain Rain
9:54 AM 42.8 °F 41.1 °F 39.2 °F 87% 29.98 in 2.5 mi SSE 3.5 mph - 0.04 in   Light Drizzle
10:13 AM 42.8 °F 39.3 °F 39.2 °F 87% 29.98 in 1.5 mi South 5.8 mph - N/A   Overcast
10:34 AM 42.8 °F 39.3 °F 39.2 °F 87% 29.98 in 0.2 mi South 5.8 mph - N/A Fog Fog
10:54 AM 44.6 °F 41.4 °F 41.0 °F 87% 29.98 in 0.5 mi South 5.8 mph - N/A Fog Fog
11:13 AM 44.6 °F 40.7 °F 41.0 °F 87% 29.98 in 1.0 mi South 6.9 mph - N/A   Overcast
11:34 AM 44.6 °F 39.7 °F 41.0 °F 87% 29.98 in 0.2 mi South 9.2 mph - N/A Fog Fog
11:54 AM 44.6 °F 42.2 °F 41.0 °F 87% 29.97 in 0.2 mi South 4.6 mph - N/A   Heavy Drizzle
12:13 PM 44.6 °F 42.2 °F 41.0 °F 87% 29.96 in 0.2 mi South 4.6 mph - N/A   Drizzle
12:34 PM 44.6 °F 41.4 °F 41.0 °F 87% 29.96 in 0.2 mi South 5.8 mph - N/A   Light Drizzle
12:53 PM 44.6 °F 41.4 °F 41.0 °F 87% 29.96 in 0.2 mi South 5.8 mph - N/A   Light Drizzle
1:13 PM 44.6 °F 40.7 °F 42.8 °F 93% 29.95 in 0.2 mi SSW 6.9 mph - N/A Fog Fog
1:34 PM 44.6 °F 42.2 °F 42.8 °F 93% 29.95 in 0.2 mi South 4.6 mph - N/A Fog Fog
1:53 PM 44.6 °F 43.1 °F 42.8 °F 93% 29.94 in 0.2 mi SSW 3.5 mph - N/A   Overcast
2:13 PM 44.6 °F 42.2 °F 42.8 °F 93% 29.94 in 0.5 mi SSW 4.6 mph - N/A Fog Fog
2:34 PM 44.6 °F 40.7 °F 42.8 °F 93% 29.94 in 0.2 mi South 6.9 mph - N/A Fog Fog
2:53 PM 44.6 °F - 42.8 °F 93% 29.94 in 0.2 mi Calm Calm - N/A Fog Fog
3:13 PM 44.6 °F - 42.8 °F 93% 29.94 in 1.0 mi Calm Calm - N/A   Overcast
3:34 PM 44.6 °F 43.1 °F 42.8 °F 93% 29.94 in 0.8 mi South 3.5 mph - N/A   Overcast
3:54 PM 44.6 °F 42.2 °F 42.8 °F 93% 29.94 in 0.5 mi South 4.6 mph - N/A Fog Fog
4:13 PM 44.6 °F 42.2 °F 42.8 °F 93% 29.94 in 0.8 mi South 4.6 mph - N/A   Overcast
4:34 PM 44.6 °F 43.1 °F 42.8 °F 93% 29.94 in 1.8 mi SSW 3.5 mph - N/A   Overcast
4:54 PM 44.6 °F - 42.8 °F 93% 29.94 in 0.8 mi Calm Calm - N/A   Overcast
5:13 PM 44.6 °F - 42.8 °F 93% 29.94 in 0.5 mi Calm Calm - N/A Fog Fog
5:33 PM 44.6 °F 42.2 °F 41.0 °F 87% 29.94 in 0.2 mi South 4.6 mph - N/A Fog Fog
5:54 PM 42.8 °F - 41.0 °F 93% 29.94 in 0.2 mi Calm Calm - N/A Fog Fog
6:14 PM 42.8 °F - 39.2 °F 87% 29.94 in 0.2 mi Calm Calm - N/A Fog Fog
6:33 PM 42.8 °F 41.1 °F 39.2 °F 87% 29.94 in 0.2 mi South 3.5 mph - N/A Fog Fog
6:53 PM 42.8 °F 41.1 °F 39.2 °F 87% 29.94 in 0.2 mi South 3.5 mph - N/A Fog Fog
7:13 PM 42.8 °F 39.3 °F 39.2 °F 87% 29.94 in 0.2 mi SSW 5.8 mph - N/A Fog Fog
7:33 PM 42.8 °F 40.1 °F 39.2 °F 87% 29.95 in 0.2 mi SSW 4.6 mph - N/A Fog Fog
7:54 PM 42.8 °F 39.3 °F 41.0 °F 93% 29.95 in 0.2 mi SSW 5.8 mph - N/A   Overcast
8:14 PM 42.8 °F 38.6 °F 41.0 °F 93% 29.95 in 0.2 mi SSW 6.9 mph 16.1 mph N/A   Overcast
8:33 PM 44.6 °F 40.7 °F 41.0 °F 87% 29.95 in 0.2 mi SW 6.9 mph - N/A   Overcast
8:53 PM 44.6 °F 41.4 °F 42.8 °F 93% 29.95 in 0.2 mi SSW 5.8 mph - N/A   Overcast
9:13 PM 44.6 °F 41.4 °F 42.8 °F 93% 29.94 in 0.2 mi SSW 5.8 mph - N/A Fog Fog
9:34 PM 44.6 °F 40.7 °F 42.8 °F 93% 29.94 in 0.5 mi SSW 6.9 mph - N/A Fog Fog
9:54 PM 46.4 °F 43.5 °F 42.8 °F 87% 29.94 in 0.8 mi SSW 5.8 mph - N/A   Overcast
10:13 PM 46.4 °F 45.2 °F 42.8 °F 87% 29.94 in 0.5 mi SSW 3.5 mph - N/A Fog Fog
10:34 PM 46.4 °F 42.9 °F 42.8 °F 87% 29.94 in 0.2 mi SSW 6.9 mph - N/A Fog Fog
10:53 PM 46.4 °F 45.2 °F 42.8 °F 87% 29.93 in 0.2 mi SSW 3.5 mph - N/A Fog Fog
11:14 PM 46.4 °F 43.5 °F 42.8 °F 87% 29.93 in 0.2 mi SSW 5.8 mph - N/A Fog Fog
11:33 PM 46.4 °F 42.9 °F 42.8 °F 87% 29.93 in 0.2 mi SSW 6.9 mph - N/A Fog Fog
11:54 PM 46.4 °F 42.9 °F 44.6 °F 93% 29.93 in 0.2 mi SSW 6.9 mph - N/A Fog Fog